This is the latest recevied weather packets stored in our database for station/object KO4DYK. If no packets are shown the sender has not sent any weather packets the latest 10 day(s).
| Time | Temp. | Humidity | Pressure | Rain* | Wind** | Luminosity | Snow |
|---|---|---|---|---|---|---|---|
| 1778067061 | 11.11° C | 99% | 1014.5 hPa | 0 mm | - | 7 W/m² | - |
| 1778066758 | 11.11° C | 99% | 1014.3 hPa | 0 mm | - | 4 W/m² | - |
| 1778066455 | 11.11° C | 99% | 1014.5 hPa | 1.78 mm | - | 1 W/m² | - |
| 1778066153 | 11.11° C | 99% | 1015 hPa | 1.78 mm | - | 0 W/m² | - |
| 1778065850 | 11.11° C | 99% | 1014.7 hPa | 4.83 mm | - | 0 W/m² | - |
| 1778065548 | 11.11° C | 99% | 1015.2 hPa | 7.11 mm | - | 0 W/m² | - |
| 1778065245 | 11.11° C | 99% | 1015.8 hPa | 7.87 mm | - | 0 W/m² | - |
| 1778064941 | 11.11° C | 99% | 1016.2 hPa | 7.11 mm | - | 0 W/m² | - |
| 1778064638 | 11.11° C | 99% | 1015.8 hPa | 4.83 mm | - | 0 W/m² | - |
| 1778064336 | 11.11° C | 99% | 1015.4 hPa | 4.83 mm | - | 0 W/m² | - |
| 1778064034 | 11.11° C | 99% | 1015.2 hPa | 6.1 mm | - | 0 W/m² | - |
| 1778063731 | 11.11° C | 99% | 1015.3 hPa | 4.83 mm | - | 0 W/m² | - |
| 1778063427 | 11.67° C | 99% | 1015.6 hPa | 1.78 mm | - | 0 W/m² | - |
| 1778063126 | 11.67° C | 99% | 1015.9 hPa | 0 mm | - | 0 W/m² | - |
| 1778062823 | 11.11° C | 99% | 1015.2 hPa | 0 mm | - | 0 W/m² | - |
| 1778062519 | 11.67° C | 99% | 1014.5 hPa | 0 mm | - | 0 W/m² | - |
| 1778062217 | 11.67° C | 99% | 1013.6 hPa | 1.27 mm | - | 0 W/m² | - |
| 1778061915 | 11.67° C | 99% | 1013.9 hPa | 1.27 mm | - | 0 W/m² | - |
| 1778061613 | 11.67° C | 99% | 1013.9 hPa | 0 mm | - | 0 W/m² | - |
| 1778061311 | 11.67° C | 99% | 1013.6 hPa | 0 mm | - | 0 W/m² | - |
| 1778061007 | 11.67° C | 99% | 1013.4 hPa | 0 mm | - | 0 W/m² | - |
| 1778060705 | 11.67° C | 99% | 1013.5 hPa | 1.78 mm | - | 0 W/m² | - |
| 1778060403 | 11.67° C | 99% | 1013.4 hPa | 1.78 mm | - | 0 W/m² | - |
| 1778060101 | 11.67° C | 99% | 1013.9 hPa | 0 mm | - | 0 W/m² | - |
| 1778059798 | 11.67° C | 99% | 1014.2 hPa | 3.05 mm | - | 0 W/m² | - |
* Rain latest hour (hover to see other rain measurements)
** Current wind speed in m/s (hover to see current wind gust speed)